Amritsar, India

12:58 PM IST on May 21, 2018 (GMT +0530)
Amritsar

Weather History for VIAR - March, 2012

Change the Weather History Date:

Friday, March 23, 2012

  Actual Average Record
Temperature  
Mean Temperature 67 °F -  
Max Temperature 83 °F 80 °F 89 °F (2002)
Min Temperature 51 °F 56 °F 32 °F (2004)
Cooling Degree Days 2    
Growing Degree Days 17 (Base 50)    
Moisture  
Dew Point 48 °F    
Average Humidity 54    
Maximum Humidity 88    
Minimum Humidity 20    
Precipitation  
Precipitation 0.00 in - - ()
Sea Level Pressure  
Sea Level Pressure 29.95 in    
Wind  
Wind Speed 2 mph ()    
Max Wind Speed 9 mph    
Max Gust Speed -    
Visibility 2.0 miles    
Events      
Averages and records for this station are not official NWS values.
T = Trace of Precipitation, MM = Missing Value Source: Averaged Metar Reports

Daily Weather History Graph

Daily Weather History Graph

Search for Another Location

Airport or City:

Astronomy

Mar. 23, 2012 Rise Set
Actual Time 6:30 AM IST 6:44 PM IST
Civil Twilight 6:06 AM IST 7:08 PM IST
Nautical Twilight 5:37 AM IST 7:36 PM IST
Astronomical Twilight 5:09 AM IST 8:05 PM IST
Moon 6:30 AM IST (3/23) 7:32 PM IST (3/23)
Length of Visible Light 13h 02m
Length of Day
12h 13m
New Moon, 0% of the Moon is Illuminated
Mar 23
New Moon
Mar 31
First Quarter
Apr 7
Full
Apr 13
Last Quarter
Apr 21
New

Hourly Weather History & Observations

Time (IST) Temp. Dew Point Humidity Pressure Visibility Wind Dir Wind Speed Gust Speed Precip Events Conditions
12:00 AM 57.2 °F 46.4 °F 67% 29.98 in 3.1 mi Calm Calm - N/A   Unknown
12:30 AM 57.2 °F 46.4 °F 67% 29.98 in 1.9 mi Calm Calm - N/A   Unknown
1:00 AM 55.4 °F 46.4 °F 72% 29.95 in 1.2 mi Calm Calm - N/A   Unknown
1:30 AM 57.2 °F 44.6 °F 63% 29.95 in 1.2 mi Calm Calm - N/A   Unknown
2:00 AM 57.2 °F 42.8 °F 59% 29.95 in 1.2 mi Calm Calm - N/A   Unknown
2:30 AM 56 °F 43 °F 51% 29.95 in 1 mi Calm Calm - -   Widespread Dust
2:30 AM 55.4 °F 42.8 °F 63% 29.95 in 1.2 mi Calm Calm - N/A   Unknown
3:00 AM 57.2 °F 42.8 °F 59% 29.92 in 1.2 mi Variable 1.2 mph - N/A   Unknown
3:30 AM 55.4 °F 44.6 °F 67% 29.95 in 1.2 mi Calm Calm - N/A   Unknown
4:00 AM 57.2 °F 42.8 °F 59% 29.92 in 1.2 mi Variable 2.3 mph - N/A   Unknown
5:00 AM 51.8 °F 44.6 °F 76% 29.95 in 1.2 mi Calm Calm - N/A   Unknown
5:30 AM 52 °F 48 °F 80% 29.95 in 1 mi Calm Calm - -   Widespread Dust
5:30 AM 51.8 °F 48.2 °F 88% 29.95 in 1.6 mi Calm Calm - N/A   Unknown
6:00 AM 53.6 °F 44.6 °F 72% 29.95 in 1.6 mi Calm Calm - N/A   Unknown
6:30 AM 53.6 °F 44.6 °F 72% 29.95 in 1.6 mi Calm Calm - N/A   Unknown
7:00 AM 53.6 °F 46.4 °F 77% 29.95 in 1.9 mi Calm Calm - N/A   Scattered Clouds
7:30 AM 53.6 °F 46.4 °F 77% 29.98 in 1.9 mi Calm Calm - N/A   Scattered Clouds
8:00 AM 57.2 °F 46.4 °F 67% 29.98 in 1.9 mi Calm Calm - N/A   Scattered Clouds
8:30 AM 60.8 °F 44.6 °F 55% 29.98 in 1.9 mi Variable 1.2 mph - N/A   Haze
9:00 AM 62.6 °F 46.4 °F 55% 29.98 in 1.9 mi Variable 2.3 mph - N/A   Haze
9:30 AM 64.4 °F 46.4 °F 52% 30.01 in 1.9 mi Variable 3.5 mph - N/A   Scattered Clouds
10:00 AM 68.0 °F 50.0 °F 52% 30.01 in 1.9 mi Variable 2.3 mph - N/A   Partly Cloudy
11:00 AM 73.4 °F 48.2 °F 41% 30.01 in 2.5 mi WNW 3.5 mph - N/A   Unknown
11:30 AM 75.2 °F 50.0 °F 41% 30.01 in 2.5 mi North 6.9 mph - N/A   Unknown
12:00 PM 77.0 °F 48.2 °F 36% 30.01 in 2.5 mi NW 6.9 mph - N/A   Unknown
1:00 PM 77.0 °F 48.2 °F 36% 29.98 in 2.5 mi WNW 6.9 mph - N/A   Unknown
1:30 PM 78.8 °F 46.4 °F 32% 29.98 in 2.5 mi West 6.9 mph - N/A   Unknown
2:00 PM 80.6 °F 46.4 °F 30% 29.95 in 2.5 mi West 9.2 mph - N/A   Unknown
2:30 PM 81 °F 47 °F 20% 29.93 in 2 mi WNW 9.2 mph - -   Widespread Dust
2:30 PM 80.6 °F 46.4 °F 30% 29.95 in 2.5 mi WNW 9.2 mph - N/A   Unknown
3:00 PM 80.6 °F 46.4 °F 30% 29.95 in 2.5 mi WNW 9.2 mph - N/A   Unknown
3:30 PM 82.4 °F 48.2 °F 30% 29.92 in 2.5 mi West 8.1 mph - N/A   Unknown
4:00 PM 82.4 °F 44.6 °F 26% 29.92 in 2.5 mi West 9.2 mph - N/A   Unknown
4:30 PM 80.6 °F 48.2 °F 32% 29.92 in 2.5 mi West 8.1 mph - N/A   Unknown
5:00 PM 80.6 °F 50.0 °F 34% 29.92 in 2.5 mi West 8.1 mph - N/A   Unknown
5:30 PM 78 °F 54 °F 32% 29.89 in 2 mi West 4.6 mph - -   Widespread Dust
5:30 PM 78.8 °F 53.6 °F 42% 29.92 in 2.5 mi West 4.6 mph - N/A   Mostly Cloudy
6:00 PM 77.0 °F 53.6 °F 44% 29.92 in 2.5 mi West 4.6 mph - N/A   Mostly Cloudy
6:30 PM 73.4 °F 55.4 °F 53% 29.92 in 2.5 mi Calm Calm - N/A   Smoke
7:00 PM 69.8 °F 55.4 °F 60% 29.92 in 2.5 mi Calm Calm - N/A   Smoke
7:30 PM 68.0 °F 53.6 °F 60% 29.92 in 2.2 mi West 4.6 mph - N/A   Smoke
8:00 PM 68.0 °F 51.8 °F 56% 29.92 in 2.2 mi Calm Calm - N/A   Smoke
8:30 PM 66.2 °F 51.8 °F 60% 29.95 in 2.2 mi Calm Calm - N/A   Smoke
9:00 PM 66.2 °F 50.0 °F 56% 29.95 in 2.2 mi Calm Calm - N/A   Smoke
9:30 PM 64.4 °F 50.0 °F 59% 29.95 in 2.2 mi Calm Calm - N/A   Smoke
10:00 PM 64.4 °F 50.0 °F 59% 29.98 in 2.5 mi Calm Calm - N/A   Smoke
10:30 PM 62.6 °F 50.0 °F 63% 29.98 in 2.5 mi Calm Calm - N/A   Smoke
11:00 PM 60.8 °F 50.0 °F 68% 29.98 in 2.5 mi Calm Calm - N/A   Smoke
11:30 PM 60.8 °F 50.0 °F 68% 29.98 in 2.5 mi Calm Calm - N/A   Smoke